[[{"header":{"parameterUnit":"m.s-1","parameterCategory":1,"la1":30.2991,"la2":30.254,"lo1":-89.0895,"lo2":-89.0444,"dy":0.0017,"dx":0.0017,"nx":28,"ny":28,"refTime":"2024-02-11T03:00:00:Z","depth":0,"parameterNumber":2,"parameterNumberName":"U-component_of_WINDS"},"data":[0,0,0,0,0,0,0,0,0,0,0,0,0,0,0,0,0,0,0,0,0,0,0,0,0,0,0,0,0,0,0,0,0,0,0,0,0,0,0,0,0,0,0,0,0,0,0,0,0,0,0,0,0,0,0,0,0,0,-1.2776,-1.2776,0,-1.278,-1.2781,-1.2781,-1.2762,-1.2761,-1.2761,-1.276,-1.2765,-1.2766,-1.2766,0,0,0,0,0,0,0,0,0,0,0,0,0,-1.275,-1.2751,-1.2776,-1.2776,-1.2776,-1.278,-1.2781,-1.2781,-1.2762,-1.2761,-1.2761,-1.276,-1.2765,-1.2766,-1.2766,0,0,0,0,0,0,0,0,0,0,0,0,0,-1.2759,-1.2751,-1.2776,-1.2767,-1.2766,-1.278,-1.2781,-1.2781,-1.2762,-1.2761,-1.276,-1.276,-1.2765,-1.2766,-1.2767,-1.2789,0,0,-1.2769,-1.277,0,0,0,0,0,0,0,0,-1.2758,-1.276,-1.2768,-1.2768,-1.2767,-1.277,-1.2773,-1.2784,-1.2762,-1.2764,-1.276,-1.2759,-1.2767,-1.2768,-1.2771,-1.2789,-1.279,-1.277,-1.277,-1.2771,-1.2771,0,0,0,0,0,0,0,-1.2758,-1.276,-1.2778,-1.2768,-1.2768,-1.2763,-1.2763,-1.2775,-1.277,-1.2764,-1.2762,-1.2763,-1.2767,-1.277,-1.2771,-1.279,-1.277,-1.277,-1.2771,-1.2771,-1.2826,-1.2827,0,0,0,0,0,0,-1.2758,-1.2759,-1.2777,-1.2778,-1.2761,-1.2764,-1.2764,-1.277,-1.277,-1.2769,-1.2764,-1.2762,-1.2769,-1.277,-1.2771,-1.2796,-1.2771,-1.2771,-1.2772,-1.2825,-1.2826,-1.2827,0,0,0,0,0,0,-1.2758,-1.276,-1.2777,-1.2768,-1.277,-1.2765,-1.2771,-1.277,-1.2773,-1.277,-1.2769,-1.2768,-1.2768,-1.2769,-1.2784,-1.2796,-1.2772,-1.2773,-1.2824,-1.2826,-1.2827,-1.2848,0,0,0,0,0,0,-1.2757,-1.276,-1.2769,-1.2768,-1.277,-1.2791,-1.2772,-1.2771,-1.2775,-1.2773,-1.2774,-1.2773,-1.2767,-1.2783,-1.2785,-1.2797,-1.2774,-1.2823,-1.2825,-1.2826,-1.2846,-1.285,-1.2853,0,0,0,0,0,-1.2756,-1.2775,-1.2769,-1.2772,-1.2781,-1.2792,-1.2793,-1.2786,-1.2776,-1.2784,-1.2782,-1.2773,-1.2795,-1.2785,-1.2787,-1.2799,-1.2822,-1.2824,-1.2826,-1.2845,-1.2849,-1.2853,0,0,0,0,0,0,-1.2777,-1.2775,-1.2768,-1.2787,-1.279,-1.2789,-1.2799,-1.2791,-1.2797,-1.2795,-1.2786,-1.2787,-1.2803,-1.2803,-1.2792,-1.2821,-1.2807,-1.2809,-1.282,-1.2824,-1.2828,-1.2827,-1.2774,0,0,0,0,0,-1.2784,-1.2792,-1.279,-1.2807,-1.2808,-1.2804,-1.2808,-1.2803,-1.2805,-1.2806,-1.2805,-1.2807,-1.2815,-1.282,-1.2827,-1.2847,-1.2846,-1.2856,-1.286,-1.2863,-1.2864,-1.2874,-1.2878,-1.2834,-1.2834,-1.2834,0,0,-1.2797,-1.2797,-1.2803,-1.2811,-1.2812,-1.2821,-1.2805,-1.2815,-1.2821,-1.2807,-1.2821,-1.2821,-1.2823,-1.284,-1.2848,-1.2841,-1.2877,-1.2865,-1.2867,-1.2868,-1.2877,-1.2881,-1.2885,-1.2835,-1.2835,-1.2835,0,0,-1.2827,-1.2828,-1.2842,-1.2843,-1.2845,-1.2842,-1.2845,-1.2845,-1.2844,-1.2858,-1.2847,-1.2855,-1.2868,-1.287,-1.2873,-1.2903,-1.2894,-1.2905,-1.2923,-1.2932,-1.2936,-1.2939,-1.2948,-1.2952,-1.2908,-1.2908,-1.2908,0,-1.2844,-1.2857,-1.285,-1.2861,-1.2864,-1.2852,-1.2865,-1.2867,-1.2871,-1.2874,-1.2866,-1.2882,-1.2882,-1.29,-1.2907,-1.291,-1.2913,-1.2905,-1.2936,-1.2939,-1.2941,-1.295,-1.2954,-1.2909,-1.2909,-1.2909,-1.2908,0,-1.2877,-1.2886,-1.2897,-1.2901,-1.2906,-1.2918,-1.2912,-1.2918,-1.2912,-1.291,-1.2924,-1.2924,-1.293,-1.2934,-1.2929,-1.2951,-1.2946,-1.2937,-1.2923,-1.2947,-1.2955,-1.2959,-1.2911,-1.291,-1.291,-1.291,0,0,-1.2919,-1.2919,-1.2922,-1.2924,-1.2925,-1.2932,-1.2944,-1.2949,-1.2954,-1.2958,-1.2966,-1.2978,-1.2969,-1.2972,-1.2967,-1.2976,-1.2998,-1.2966,-1.2966,-1.2971,-1.3021,-1.3026,-1.3031,-1.2993,-1.2994,-1.2994,-1.302,0,-1.2947,-1.2966,-1.296,-1.2979,-1.2987,-1.2976,-1.2985,-1.2987,-1.2985,-1.2992,-1.299,-1.2997,-1.2986,-1.2988,-1.2996,-1.2994,-1.3008,-1.2992,-1.3,-1.3001,-1.2999,-1.3035,-1.3041,-1.3066,-1.3024,-1.3024,-1.3024,0,-1.2982,-1.2986,-1.3006,-1.3005,-1.3008,-1.3017,-1.3022,-1.3028,-1.303,-1.3028,-1.3031,-1.3024,-1.3035,-1.3022,-1.3036,-1.3026,-1.3029,-1.3028,-1.3029,-1.3029,-1.3013,-1.3034,-1.3073,-1.3077,-1.303,-1.3029,-1.3029,0,-1.3008,-1.302,-1.3033,-1.3034,-1.3034,-1.304,-1.3041,-1.3042,-1.3045,-1.305,-1.3052,-1.3057,-1.306,-1.3064,-1.3059,-1.305,-1.3074,-1.306,-1.3072,-1.3072,-1.3077,-1.3076,-1.3115,-1.3081,-1.3081,-1.3081,-1.3081,0,-1.304,-1.3052,-1.3044,-1.3052,-1.3066,-1.3059,-1.3072,-1.3071,-1.3072,-1.3079,-1.3071,-1.3078,-1.3071,-1.3077,-1.3073,-1.3085,-1.3087,-1.3085,-1.3084,-1.3085,-1.3085,-1.3086,-1.3084,-1.3082,-1.3082,-1.3082,-1.3081,0,-1.3071,-1.3067,-1.308,-1.3079,-1.3079,-1.3089,-1.3087,-1.3095,-1.3092,-1.3101,-1.3103,-1.3099,-1.3106,-1.3102,-1.3109,-1.3106,-1.3122,-1.3119,-1.3121,-1.312,-1.3131,-1.3129,-1.3171,-1.3176,-1.314,-1.314,-1.314,0,-1.3091,-1.31,-1.3099,-1.3103,-1.3104,-1.3111,-1.3115,-1.3108,-1.3112,-1.3115,-1.3121,-1.3128,-1.3132,-1.3144,-1.3142,-1.3147,-1.3143,-1.3158,-1.3144,-1.3145,-1.3142,-1.3141,-1.3141,-1.316,-1.316,-1.3161,-1.3161,0,-1.3125,-1.3122,-1.3128,-1.3132,-1.3137,-1.314,-1.3143,-1.3147,-1.314,-1.3145,-1.3152,-1.3155,-1.3163,-1.3169,-1.3173,-1.3173,-1.3166,-1.3165,-1.3168,-1.3169,-1.3169,-1.3168,-1.3127,-1.3164,-1.3164,-1.3164,-1.3163,-1.3163,-1.3151,-1.3158,-1.3158,-1.3164,-1.3165,-1.3168,-1.3174,-1.3172,-1.3178,-1.3183,-1.3179,-1.3187,-1.3188,-1.3193,-1.3194,-1.32,-1.3195,-1.3199,-1.32,-1.3201,-1.3202,-1.317,-1.3202,-1.3201,-1.3201,-1.3201,-1.3201,0,-1.3183,-1.3183,-1.3189,-1.3192,-1.3197,-1.319,-1.3192,-1.3196,-1.3203,-1.3205,-1.321,-1.3217,-1.3223,-1.3221,-1.3226,-1.3231,-1.3228,-1.3233,-1.3232,-1.3232,-1.3207,-1.3204,-1.3235,-1.3235,-1.3235,-1.3235,-1.3235,-1.3235,-1.3201,-1.3212,-1.321,-1.3221,-1.3221,-1.3228,-1.323,-1.3232,-1.3233,-1.3242,-1.3247,-1.3245,-1.3246,-1.3251,-1.3255,-1.3255,-1.3256,-1.3262,-1.326,-1.3237,-1.3234,-1.323,-1.3227,-1.3263,-1.3263,-1.3284,-1.3284,-1.3284]},{"header":{"parameterUnit":"m.s-1","parameterCategory":1,"la1":30.2991,"la2":30.254,"lo1":-89.0895,"lo2":-89.0444,"dy":0.0017,"dx":0.0017,"nx":28,"ny":28,"refTime":"2024-02-11T03:00:00:Z","depth":0,"parameterNumber":3,"parameterNumberName":"V-component_of_WINDS"},"data":[0,0,0,0,0,0,0,0,0,0,0,0,0,0,0,0,0,0,0,0,0,0,0,0,0,0,0,0,0,0,0,0,0,0,0,0,0,0,0,0,0,0,0,0,0,0,0,0,0,0,0,0,0,0,0,0,0,0,1.7516,1.7516,0,1.7601,1.7602,1.7603,1.7636,1.7635,1.7635,1.7635,1.7728,1.7731,1.7734,0,0,0,0,0,0,0,0,0,0,0,0,0,1.7388,1.739,1.7515,1.7517,1.7518,1.7601,1.7602,1.7603,1.7636,1.7635,1.7635,1.7635,1.7727,1.7731,1.7734,0,0,0,0,0,0,0,0,0,0,0,0,0,1.7455,1.7391,1.7515,1.7544,1.7547,1.76,1.7602,1.7603,1.7636,1.7635,1.7635,1.7635,1.7726,1.773,1.7734,1.7767,0,0,1.7747,1.7749,0,0,0,0,0,0,0,0,1.7452,1.746,1.7539,1.7542,1.7546,1.7607,1.7591,1.7659,1.7636,1.7602,1.7635,1.7634,1.7689,1.7696,1.7713,1.7772,1.7776,1.7747,1.775,1.7751,1.7753,0,0,0,0,0,0,0,1.7447,1.7457,1.7549,1.754,1.7544,1.7555,1.7564,1.7604,1.7647,1.7605,1.7608,1.7617,1.7691,1.7709,1.7715,1.7777,1.7747,1.7751,1.7753,1.7755,1.787,1.7871,0,0,0,0,0,0,1.7436,1.7452,1.7547,1.7552,1.7496,1.7557,1.7567,1.7588,1.7646,1.7655,1.7617,1.7618,1.7702,1.7711,1.7719,1.7763,1.7751,1.7755,1.7758,1.7869,1.787,1.7871,0,0,0,0,0,0,1.7434,1.7445,1.7543,1.7503,1.7516,1.756,1.7583,1.759,1.7608,1.7655,1.7664,1.7628,1.7702,1.7713,1.7755,1.7766,1.7757,1.7761,1.7869,1.787,1.7871,1.785,0,0,0,0,0,0,1.743,1.7443,1.7455,1.7503,1.7518,1.7576,1.7583,1.7592,1.7614,1.7616,1.7667,1.7676,1.7703,1.7749,1.7759,1.7772,1.7764,1.7868,1.7869,1.787,1.785,1.785,1.785,0,0,0,0,0,1.7425,1.7446,1.7455,1.7466,1.7533,1.7576,1.7586,1.7614,1.7615,1.7628,1.7659,1.7674,1.7763,1.7753,1.7765,1.7779,1.7867,1.7869,1.787,1.785,1.785,1.785,0,0,0,0,0,0,1.74,1.7453,1.7463,1.75,1.7533,1.7582,1.7599,1.7614,1.7649,1.765,1.7686,1.7697,1.7737,1.7762,1.775,1.7815,1.7817,1.7821,1.7797,1.7798,1.7798,1.7792,1.7767,0,0,0,0,0,1.7398,1.7427,1.7473,1.7501,1.7517,1.7555,1.7575,1.7594,1.7631,1.7646,1.768,1.7717,1.7754,1.7777,1.7813,1.7854,1.7867,1.7869,1.787,1.7869,1.7873,1.7898,1.7901,1.7875,1.7875,1.7875,0,0,1.7396,1.7429,1.7445,1.7497,1.7525,1.7556,1.7567,1.7599,1.7624,1.7652,1.7693,1.772,1.7764,1.7805,1.7825,1.7828,1.7883,1.7871,1.7871,1.7874,1.79,1.7902,1.7904,1.7876,1.7876,1.7876,0,0,1.7408,1.7434,1.7462,1.7489,1.7531,1.7556,1.7563,1.7609,1.7628,1.7669,1.7692,1.7723,1.7784,1.7815,1.7839,1.7864,1.788,1.7875,1.7876,1.79,1.7902,1.7904,1.7915,1.7918,1.7877,1.7877,1.7877,0,1.74,1.7446,1.7474,1.7506,1.7529,1.7554,1.7583,1.761,1.7662,1.7679,1.768,1.7759,1.779,1.784,1.7846,1.7864,1.7875,1.7869,1.7899,1.7902,1.7904,1.7915,1.7918,1.7877,1.7877,1.7877,1.7877,0,1.7436,1.7467,1.7485,1.7533,1.7558,1.7588,1.7623,1.7646,1.7664,1.769,1.7734,1.7772,1.7817,1.783,1.7848,1.7884,1.7884,1.7892,1.7894,1.7905,1.7916,1.792,1.7875,1.7876,1.7876,1.7876,0,0,1.7434,1.7497,1.7503,1.7526,1.7574,1.7601,1.7633,1.7676,1.7695,1.7731,1.7761,1.7813,1.7821,1.7848,1.787,1.7891,1.791,1.7896,1.7898,1.7899,1.7955,1.7949,1.7953,1.7921,1.7922,1.7923,1.7952,0,1.7453,1.7509,1.7536,1.7582,1.7614,1.7639,1.7668,1.7702,1.7727,1.7759,1.7789,1.7825,1.7832,1.7849,1.7871,1.7903,1.7922,1.7901,1.7952,1.7953,1.7941,1.7959,1.7953,1.7978,1.7956,1.7956,1.7957,0,1.7482,1.7516,1.7565,1.7611,1.7625,1.765,1.7692,1.7721,1.7762,1.778,1.781,1.7831,1.7869,1.7868,1.7923,1.7908,1.793,1.795,1.7951,1.7958,1.7956,1.7967,1.7987,1.7991,1.7963,1.7963,1.7962,0,1.7478,1.7536,1.7573,1.7591,1.7646,1.7663,1.7687,1.7727,1.7751,1.7789,1.7806,1.7848,1.7871,1.7905,1.7938,1.7934,1.799,1.7991,1.8008,1.8007,1.8019,1.8018,1.8043,1.8031,1.8031,1.8031,1.8031,0,1.7497,1.7526,1.7571,1.7594,1.7629,1.7661,1.7695,1.7721,1.7756,1.7787,1.7812,1.784,1.7882,1.7916,1.7943,1.7985,1.7995,1.8012,1.8019,1.8011,1.8009,1.8027,1.8026,1.8032,1.8032,1.8032,1.8031,0,1.7498,1.7529,1.7571,1.7619,1.7632,1.7655,1.7698,1.7722,1.7749,1.7787,1.7798,1.7842,1.7884,1.792,1.7976,1.7994,1.8038,1.8046,1.8024,1.8028,1.8043,1.8041,1.8082,1.809,1.807,1.807,1.807,0,1.7508,1.7531,1.7581,1.7602,1.7625,1.7659,1.7684,1.7717,1.7742,1.7791,1.7811,1.7854,1.7891,1.7957,1.7995,1.8039,1.8049,1.806,1.8056,1.8047,1.8051,1.805,1.8054,1.8061,1.8061,1.8061,1.8061,0,1.7524,1.7538,1.7572,1.7611,1.764,1.7673,1.7707,1.7724,1.7764,1.7792,1.7834,1.7862,1.7919,1.7963,1.8011,1.8039,1.8058,1.8062,1.8068,1.806,1.8047,1.8056,1.8026,1.8061,1.8061,1.8061,1.8061,1.8061,1.7531,1.7553,1.7592,1.7629,1.7658,1.769,1.7715,1.7745,1.778,1.7828,1.7846,1.789,1.7933,1.7999,1.8027,1.8064,1.8067,1.8075,1.8078,1.808,1.808,1.804,1.8073,1.8073,1.8073,1.8073,1.8073,0,1.7549,1.7575,1.7609,1.7656,1.7686,1.7698,1.7737,1.7762,1.78,1.7837,1.7872,1.7923,1.7966,1.8007,1.8053,1.8075,1.8085,1.8086,1.8086,1.8092,1.8073,1.8064,1.8077,1.8077,1.8077,1.8077,1.8077,1.8077,1.7562,1.7601,1.762,1.7674,1.7702,1.7743,1.7765,1.7795,1.7825,1.7879,1.7914,1.794,1.7981,1.803,1.8071,1.8083,1.8099,1.8098,1.8112,1.8094,1.8093,1.8092,1.8084,1.8101,1.8101,1.8128,1.8129,1.8129]}]]